Location: Hamilton
(43.2500°N, 79.8330°W)
Time: 18:32:22
(UTC-04:00)

Amateur Radio Satellites - All Passes

Search period start: 28 July 2014 18:02
Search period end: 29 July 2014 18:02
Location: Hamilton, 43.2500°N, 79.8330°W

Satellite Date Start Highest point End Downlink Frequencies (MHz)
Time Altitude Azimuth
Hamsat 28 Jul 18:05:16 18:09:15 45° 72° (ENE) 18:13:16 145.90 MHz
RS-15 28 Jul 18:05:25 18:14:04 26° 346° (NNW) 18:22:47 29.354 - 29.394 USB, Beacon 29.352 USB
JAS-2 28 Jul 18:06:39 18:14:09 53° 69° (ENE) 18:21:09 435.800 - 435.900 CW/SSB, 435.910 FM
AO-7 28 Jul 18:40:11 18:45:42 19° 270° (W) 18:51:16 29.400 - 29.500 MHz
SO-67 28 Jul 18:52:58 18:55:34 20° 69° (ENE) 18:58:11 435.3500 MHz FM
OPAL 28 Jul 19:26:50 19:28:52 12° 305° (NW) 19:30:54 ?
Hamsat 28 Jul 19:42:54 19:45:28 16° 269° (W) 19:48:04 145.90 MHz
JAS-2 28 Jul 19:52:19 19:59:17 35° 265° (W) 20:05:56 435.800 - 435.900 CW/SSB, 435.910 FM
HO-68 28 Jul 19:55:20 20:00:41 23° 56° (NE) 20:06:02 435.675 MHz FM
STRAND 1 28 Jul 20:08:06 20:13:14 72° 103° (ESE) 20:18:18 ?
UKube-1 28 Jul 20:20:57 20:22:35 12° 60° (ENE) 20:24:13 145.840 MHz, 145.915 MHz
RS-15 28 Jul 20:22:11 20:31:16 28° 21° (NNE) 20:40:29 29.354 - 29.394 USB, Beacon 29.352 USB
SO-67 28 Jul 20:25:39 20:28:31 24° 265° (W) 20:31:24 435.3500 MHz FM
SO-50 28 Jul 20:56:47 21:00:54 29° 44° (NE) 21:05:04 436.795 FM
Oscar 11 28 Jul 21:05:17 21:07:58 17° 64° (ENE) 21:10:41 145.825 FM, Beacon 2401.500 USB
MaSat-1 28 Jul 21:06:23 21:09:19 19° 102° (ESE) 21:12:33 437.345 MHz
FUNcube-1 28 Jul 21:27:52 21:28:38 10° 61° (ENE) 21:29:25 145.950 - 145.970 MHz USB
HO-68 28 Jul 21:40:29 21:47:39 78° 255° (WSW) 21:54:52 435.675 MHz FM
STRAND 1 28 Jul 21:48:46 21:51:49 16° 300° (WNW) 21:54:52 ?
UKube-1 28 Jul 21:53:48 21:58:10 77° 257° (WSW) 22:02:34 145.840 MHz, 145.915 MHz
RS-15 28 Jul 22:35:08 22:46:08 68° 51° (NE) 22:57:29 29.354 - 29.394 USB, Beacon 29.352 USB
SO-50 28 Jul 22:37:07 22:41:37 43° 243° (WSW) 22:46:10 436.795 FM
Oscar 11 28 Jul 22:39:36 22:43:46 50° 260° (W) 22:47:59 145.825 FM, Beacon 2401.500 USB
MaSat-1 28 Jul 22:42:11 22:46:10 44° 304° (WNW) 22:50:48 437.345 MHz
UOSAT-12 28 Jul 22:59:24 23:03:42 33° 46° (NE) 23:07:57 437.025 FM, 437.400 FM
FUNcube-1 28 Jul 23:00:05 23:04:26 82° 257° (WSW) 23:08:41 145.950 - 145.970 MHz USB
HO-68 28 Jul 23:33:15 23:36:27 13° 273° (W) 23:39:41 435.675 MHz FM
ISS 29 Jul 00:30:08 00:33:27 66° 144° (SE) 00:36:47 145.800 FM
UOSAT-12 29 Jul 00:39:34 00:43:52 35° 244° (WSW) 00:48:06 437.025 FM, 437.400 FM
Sapphire 29 Jul 00:45:29 00:50:06 30° 109° (ESE) 00:54:46 437.095 MHz 1200 baud AX-25 AFSK
RS-15 29 Jul 00:48:08 00:57:49 37° 253° (WSW) 01:07:51 29.354 - 29.394 USB, Beacon 29.352 USB
PCSat 29 Jul 01:18:03 01:23:21 61° 116° (ESE) 01:28:42 145.825 MHz
Oscar 16 29 Jul 01:40:34 01:43:22 15° 90° (E) 01:46:10 437.025 USB, Beacon 2401.1428
AO-40 29 Jul 01:45:22 04:08:18 20° 124° (SE) 05:20:26 Beacon 2401.320
ISS 29 Jul 02:07:27 02:10:23 27° 342° (NNW) 02:13:21 145.800 FM
AO-27 29 Jul 02:20:14 02:23:13 15° 90° (E) 02:26:10 436.795 MHz FM
Uribyol 2 29 Jul 02:20:24 02:23:31 16° 90° (E) 02:26:37 436.500 FM
Sapphire 29 Jul 02:28:14 02:33:21 43° 308° (NW) 02:38:31 437.095 MHz 1200 baud AX-25 AFSK
Oscar 19 29 Jul 02:49:41 02:54:49 62° 101° (ESE) 02:59:56 437.125 CW, 437.150 USB
PCSat 29 Jul 03:02:48 03:07:11 25° 315° (NW) 03:11:36 145.825 MHz
AO-Echo 29 Jul 03:07:03 03:11:53 43° 98° (E) 03:16:33 ?
Oscar 16 29 Jul 03:18:05 03:23:15 71° 287° (WNW) 03:28:23 437.025 USB, Beacon 2401.1428
OPAL 29 Jul 03:24:16 03:28:19 26° 62° (ENE) 03:32:22 ?
JAS-1B 29 Jul 03:25:52 03:34:52 47° 95° (E) 03:42:34 435.800 - 435.900 CW/SSB
ITAMSAT 1 29 Jul 03:38:47 03:44:00 80° 104° (ESE) 03:49:10 435.822 SSB
ISS 29 Jul 03:45:22 03:47:53 19° 3° (N) 03:50:24 145.800 FM
Oscar 10/S400 29 Jul 03:46:54 04:47:09 53° 208° (SSW) 11:55:00 145.825 - 145.975 CW/USB, Beacon 145.810 USB
TMSAT-1 29 Jul 03:56:01 04:00:54 36° 97° (E) 04:05:45 436.925 FM
AO-27 29 Jul 03:58:03 04:03:14 69° 287° (WNW) 04:08:21 436.795 MHz FM
Uribyol 2 29 Jul 03:58:20 04:03:28 65° 288° (WNW) 04:08:33 436.500 FM
Sapphire 29 Jul 04:17:23 04:18:18 10° 330° (NNW) 04:19:13 437.095 MHz 1200 baud AX-25 AFSK
Gurwin Techsat 1B 29 Jul 04:20:08 04:25:28 82° 104° (ESE) 04:30:47 435.225 FM
Oscar 19 29 Jul 04:30:10 04:33:41 19° 299° (WNW) 04:37:12 437.125 CW, 437.150 USB
AO-7 29 Jul 04:44:41 04:51:40 29° 94° (E) 04:58:33 29.400 - 29.500 MHz
AO-Echo 29 Jul 04:46:20 04:50:23 24° 296° (WNW) 04:54:19 ?
Oscar 16 29 Jul 05:00:57 05:01:40 10° 305° (NW) 05:02:23 437.025 USB, Beacon 2401.1428
OPAL 29 Jul 05:02:22 05:07:00 40° 260° (W) 05:11:40 ?
Uosat F 29 Jul 05:04:03 05:08:37 34° 97° (E) 05:13:09 435.120 FM
JAS-1B 29 Jul 05:16:24 05:25:17 46° 297° (WNW) 05:33:03 435.800 - 435.900 CW/SSB
ITAMSAT 1 29 Jul 05:20:00 05:22:49 15° 301° (WNW) 05:25:38 435.822 SSB
ISS 29 Jul 05:22:07 05:25:17 36° 23° (NNE) 05:28:26 145.800 FM
MaSat-1 29 Jul 05:23:35 05:25:57 13° 40° (NE) 05:28:17 437.345 MHz
KITSAT 1 29 Jul 05:29:13 05:34:53 21° 103° (ESE) 05:40:33 435.175 FM
TMSAT-1 29 Jul 05:36:08 05:40:43 31° 294° (WNW) 05:45:17 436.925 FM
STRAND 1 29 Jul 05:48:33 05:51:38 16° 60° (ENE) 05:54:43 ?
Gurwin Techsat 1B 29 Jul 06:01:49 06:04:45 15° 301° (WNW) 06:07:40 435.225 FM
AO-7 29 Jul 06:36:45 06:44:59 66° 294° (WNW) 06:53:10 29.400 - 29.500 MHz
Uosat F 29 Jul 06:42:59 06:47:19 30° 294° (WNW) 06:51:37 435.120 FM
ISS 29 Jul 06:58:52 07:02:01 38° 221° (SW) 07:05:09 145.800 FM
MaSat-1 29 Jul 06:59:06 07:04:24 62° 60° (ENE) 07:09:25 437.345 MHz
JAS-2 29 Jul 07:01:27 07:06:51 35° 94° (E) 07:11:44 435.800 - 435.900 CW/SSB, 435.910 FM
JAS-1B 29 Jul 07:09:42 07:13:12 13° 320° (NW) 07:16:36 435.800 - 435.900 CW/SSB
KITSAT 1 29 Jul 07:21:10 07:29:17 85° 302° (WNW) 07:37:27 435.175 FM
STRAND 1 29 Jul 07:25:05 07:30:13 73° 257° (WSW) 07:35:23 ?
Hamsat 29 Jul 07:25:28 07:29:48 84° 103° (ESE) 07:34:08 145.90 MHz
SO-67 29 Jul 07:48:27 07:51:08 20° 94° (E) 07:53:47 435.3500 MHz FM
Saudisat 1A 29 Jul 08:06:28 08:10:47 55° 120° (ESE) 08:15:07 436.775 MHz
PCSat 29 Jul 08:23:06 08:25:45 14° 35° (NE) 08:28:24 145.825 MHz
AO-7 29 Jul 08:31:27 08:36:15 17° 315° (NW) 08:41:02 29.400 - 29.500 MHz
MaSat-1 29 Jul 08:37:34 08:41:12 19° 258° (WSW) 08:44:42 437.345 MHz
JAS-2 29 Jul 08:46:34 08:51:55 34° 296° (WNW) 08:56:46 435.800 - 435.900 CW/SSB, 435.910 FM
Hamsat 29 Jul 09:04:14 09:05:07 11° 299° (WNW) 09:05:59 145.90 MHz
HO-68 29 Jul 09:08:29 09:13:17 19° 90° (E) 09:18:04 435.675 MHz FM
KITSAT 1 29 Jul 09:19:18 09:25:54 26° 325° (NW) 09:32:30 435.175 FM
SO-67 29 Jul 09:21:20 09:24:10 24° 290° (WNW) 09:26:59 435.3500 MHz FM
Sapphire 29 Jul 09:31:46 09:36:40 33° 49° (NE) 09:41:31 437.095 MHz 1200 baud AX-25 AFSK
UKube-1 29 Jul 09:42:16 09:45:04 17° 92° (E) 09:47:51 145.840 MHz, 145.915 MHz
Saudisat 1A 29 Jul 09:47:15 09:50:41 22° 319° (NW) 09:54:08 436.775 MHz
PCSat 29 Jul 10:04:56 10:10:20 61° 56° (NE) 10:15:41 145.825 MHz
Oscar 11 29 Jul 10:26:27 10:30:08 26° 95° (E) 10:33:47 145.825 FM, Beacon 2401.500 USB
FUNcube-1 29 Jul 10:49:14 10:51:58 17° 92° (E) 10:54:42 145.950 - 145.970 MHz USB
HO-68 29 Jul 10:54:36 11:01:46 82° 288° (WNW) 11:08:54 435.675 MHz FM
Sapphire 29 Jul 11:15:06 11:20:10 41° 248° (WSW) 11:25:12 437.095 MHz 1200 baud AX-25 AFSK
UKube-1 29 Jul 11:17:21 11:21:32 47° 289° (WNW) 11:25:41 145.840 MHz, 145.915 MHz
KITSAT 1 29 Jul 11:20:56 11:24:44 14° 355° (N) 11:28:32 435.175 FM
PCSat 29 Jul 11:49:22 11:53:16 20° 254° (WSW) 11:57:08 145.825 MHz
Oscar 11 29 Jul 12:02:32 12:06:17 29° 292° (WNW) 12:10:02 145.825 FM, Beacon 2401.500 USB
FUNcube-1 29 Jul 12:24:38 12:28:35 42° 288° (WNW) 12:32:33 145.950 - 145.970 MHz USB
JAS-1B 29 Jul 12:26:06 12:29:53 13° 40° (NE) 12:33:44 435.800 - 435.900 CW/SSB
Oscar 19 29 Jul 12:31:37 12:34:09 14° 58° (ENE) 12:36:41 437.125 CW, 437.150 USB
HO-68 29 Jul 12:43:59 12:48:25 18° 308° (NW) 12:52:51 435.675 MHz FM
SO-50 29 Jul 12:52:54 12:57:11 48° 118° (ESE) 13:01:34 436.795 FM
Oscar 16 29 Jul 12:58:12 13:02:17 25° 64° (ENE) 13:06:23 437.025 USB, Beacon 2401.1428
RS-15 29 Jul 13:01:03 13:10:44 36° 107° (ESE) 13:20:13 29.354 - 29.394 USB, Beacon 29.352 USB
KITSAT 1 29 Jul 13:18:24 13:24:02 20° 26° (NNE) 13:29:38 435.175 FM
ITAMSAT 1 29 Jul 13:20:34 13:24:07 19° 61° (ENE) 13:27:41 435.822 SSB
Uribyol 2 29 Jul 13:38:54 13:43:17 28° 65° (ENE) 13:47:39 436.500 FM
AO-27 29 Jul 13:38:55 13:43:16 27° 65° (ENE) 13:47:37 436.795 MHz FM
AO-7 29 Jul 13:59:34 14:01:41 11° 38° (NE) 14:03:47 29.400 - 29.500 MHz
Gurwin Techsat 1B 29 Jul 14:04:25 14:08:12 20° 62° (ENE) 14:11:59 435.225 FM
Oscar 19 29 Jul 14:07:40 14:12:47 84° 256° (WSW) 14:17:57 437.125 CW, 437.150 USB
JAS-1B 29 Jul 14:09:18 14:17:47 46° 62° (ENE) 14:26:58 435.800 - 435.900 CW/SSB
AO-Echo 29 Jul 14:20:21 14:25:35 63° 73° (ENE) 14:30:51 ?
SO-50 29 Jul 14:34:17 14:37:59 24° 318° (NW) 14:41:45 436.795 FM
Oscar 16 29 Jul 14:36:31 14:41:23 44° 261° (W) 14:46:17 437.025 USB, Beacon 2401.1428
UOSAT-12 29 Jul 14:51:08 14:55:37 55° 119° (ESE) 15:00:12 437.025 FM, 437.400 FM
Saudisat 1A 29 Jul 14:54:28 14:56:07 12° 32° (NNE) 14:57:46 436.775 MHz
ITAMSAT 1 29 Jul 14:57:58 15:03:08 62° 258° (WSW) 15:08:19 435.822 SSB
RS-15 29 Jul 15:11:18 15:22:20 68° 309° (NW) 15:33:16 29.354 - 29.394 USB, Beacon 29.352 USB
KITSAT 1 29 Jul 15:13:25 15:21:24 57° 51° (NE) 15:29:18 435.175 FM
AO-27 29 Jul 15:17:41 15:22:35 41° 262° (W) 15:27:31 436.795 MHz FM
TMSAT-1 29 Jul 15:17:43 15:22:56 63° 72° (ENE) 15:28:11 436.925 FM
Uribyol 2 29 Jul 15:17:45 15:22:36 39° 262° (W) 15:27:27 436.500 FM
Gurwin Techsat 1B 29 Jul 15:42:29 15:47:43 59° 259° (W) 15:52:59 435.225 FM
AO-7 29 Jul 15:44:33 15:52:19 45° 61° (ENE) 16:00:05 29.400 - 29.500 MHz
JAS-1B 29 Jul 15:59:25 16:08:02 52° 263° (W) 16:17:37 435.800 - 435.900 CW/SSB
AO-Echo 29 Jul 16:01:16 16:04:46 18° 270° (W) 16:08:17 ?
Uosat F 29 Jul 16:18:11 16:23:05 54° 71° (ENE) 16:28:00 435.120 FM
Saudisat 1A 29 Jul 16:32:15 16:36:38 60° 53° (NE) 16:40:58 436.775 MHz
UOSAT-12 29 Jul 16:32:20 16:36:05 24° 319° (NW) 16:39:54 437.025 FM, 437.400 FM
TMSAT-1 29 Jul 16:59:51 17:03:18 17° 269° (W) 17:06:46 436.925 FM
KITSAT 1 29 Jul 17:09:19 17:16:27 36° 252° (WSW) 17:23:33 435.175 FM
OPAL 29 Jul 17:10:37 17:15:30 46° 102° (ESE) 17:20:25 ?
JAS-2 29 Jul 17:13:54 17:19:45 25° 60° (ENE) 17:25:17 435.800 - 435.900 CW/SSB, 435.910 FM
RS-15 29 Jul 17:28:08 17:37:11 28° 339° (NNW) 17:46:16 29.354 - 29.394 USB, Beacon 29.352 USB
AO-7 29 Jul 17:37:08 17:45:02 46° 260° (W) 17:53:01 29.400 - 29.500 MHz
